Time,TemperatureF,DewpointF,PressureIn,WindDirection,WindDirectionDegrees,WindSpeedMPH,WindSpeedGustMPH,Humidity,HourlyPrecipIn,Conditions,Clouds,dailyrainin,SoftwareType,DateUTC
2013-03-12 00:02:00,38.0,35.0,29.88,WNW,302,7.0,12.0,89,0.00,,,-99.99,,2013-03-12 04:02:00,
2013-03-12 00:13:00,38.0,35.0,29.88,WNW,302,7.0,12.0,89,0.00,,,-99.99,,2013-03-12 04:13:00,
2013-03-12 00:22:00,38.0,35.0,29.88,NW,307,5.0,13.0,89,0.00,,,-99.99,,2013-03-12 04:22:00,
2013-03-12 00:32:00,37.0,34.0,29.89,WNW,300,5.0,10.0,88,0.00,,,-99.99,,2013-03-12 04:32:00,
2013-03-12 00:43:00,37.0,34.0,29.89,WNW,300,5.0,10.0,88,0.00,,,-99.99,,2013-03-12 04:43:00,
2013-03-12 00:52:00,37.0,34.0,29.89,WNW,302,5.0,10.0,88,0.00,,,-99.99,,2013-03-12 04:52:00,
2013-03-12 01:03:00,36.0,33.0,29.90,NW,323,2.0,6.0,88,0.00,,,-99.99,,2013-03-12 05:03:00,
2013-03-12 01:12:00,36.0,33.0,29.90,NW,323,2.0,6.0,88,0.00,,,-99.99,,2013-03-12 05:12:00,
2013-03-12 01:22:00,36.0,33.0,29.89,NW,326,2.0,6.0,88,0.00,,,-99.99,,2013-03-12 05:22:00,
2013-03-12 01:32:00,36.0,33.0,29.89,WNW,284,2.0,4.0,88,0.00,,,-99.99,,2013-03-12 05:32:00,
2013-03-12 01:42:00,36.0,33.0,29.89,WNW,284,2.0,4.0,88,0.00,,,-99.99,,2013-03-12 05:42:00,
2013-03-12 01:52:00,36.0,33.0,29.89,WNW,284,1.0,4.0,89,0.00,,,-99.99,,2013-03-12 05:52:00,
2013-03-12 02:02:00,36.0,33.0,29.90,NW,304,3.0,6.0,87,0.00,,,-99.99,,2013-03-12 06:02:00,
2013-03-12 02:12:00,36.0,33.0,29.90,NW,304,3.0,6.0,87,0.00,,,-99.99,,2013-03-12 06:12:00,
2013-03-12 02:22:00,36.0,33.0,29.90,NW,307,4.0,7.0,87,0.00,,,-99.99,,2013-03-12 06:22:00,
2013-03-12 02:32:00,35.0,31.0,29.91,WNW,298,3.0,9.0,85,0.00,,,-99.99,,2013-03-12 06:32:00,
2013-03-12 02:42:00,35.0,31.0,29.91,WNW,298,3.0,9.0,85,0.00,,,-99.99,,2013-03-12 06:42:00,
2013-03-12 02:52:00,35.0,31.0,29.91,WNW,293,3.0,9.0,85,0.00,,,-99.99,,2013-03-12 06:52:00,
2013-03-12 03:02:00,34.0,30.0,29.92,NW,319,4.0,7.0,85,0.00,,,-99.99,,2013-03-12 07:02:00,
2013-03-12 03:12:00,34.0,30.0,29.92,NW,319,4.0,7.0,85,0.00,,,-99.99,,2013-03-12 07:12:00,
2013-03-12 03:22:00,34.0,30.0,29.93,NW,320,3.0,5.0,85,0.00,,,-99.99,,2013-03-12 07:22:00,
2013-03-12 03:32:00,34.0,30.0,29.93,NNW,331,0.0,6.0,84,0.00,,,-99.99,,2013-03-12 07:32:00,
2013-03-12 03:42:00,34.0,30.0,29.93,NNW,331,0.0,6.0,84,0.00,,,-99.99,,2013-03-12 07:42:00,
2013-03-12 03:52:00,34.0,30.0,29.93,NNW,332,1.0,3.0,85,0.00,,,-99.99,,2013-03-12 07:52:00,
2013-03-12 04:02:00,34.0,30.0,29.93,NNW,346,1.0,5.0,84,0.00,,,-99.99,,2013-03-12 08:02:00,
2013-03-12 04:13:00,34.0,30.0,29.93,NNW,346,1.0,5.0,84,0.00,,,-99.99,,2013-03-12 08:13:00,
2013-03-12 04:22:00,34.0,30.0,29.93,NW,323,1.0,6.0,84,0.00,,,-99.99,,2013-03-12 08:22:00,
2013-03-12 04:33:00,34.0,29.0,29.93,WNW,284,2.0,7.0,83,0.00,,,-99.99,,2013-03-12 08:33:00,
2013-03-12 04:42:00,34.0,29.0,29.93,WNW,284,2.0,7.0,83,0.00,,,-99.99,,2013-03-12 08:42:00,
2013-03-12 04:52:00,34.0,29.0,29.92,WNW,287,1.0,4.0,83,0.00,,,-99.99,,2013-03-12 08:52:00,
2013-03-12 05:03:00,34.0,29.0,29.92,NW,311,5.0,12.0,82,0.00,,,-99.99,,2013-03-12 09:03:00,
2013-03-12 05:12:00,34.0,29.0,29.92,NW,311,5.0,12.0,82,0.00,,,-99.99,,2013-03-12 09:12:00,
2013-03-12 05:22:00,34.0,29.0,29.92,NW,317,4.0,12.0,83,0.00,,,-99.99,,2013-03-12 09:22:00,
2013-03-12 05:33:00,34.0,30.0,29.93,NW,310,1.0,7.0,84,0.00,,,-99.99,,2013-03-12 09:33:00,
2013-03-12 05:42:00,34.0,30.0,29.93,NW,310,1.0,7.0,84,0.00,,,-99.99,,2013-03-12 09:42:00,
2013-03-12 05:52:00,34.0,30.0,29.94,NNW,328,2.0,5.0,84,0.00,,,-99.99,,2013-03-12 09:52:00,
2013-03-12 06:02:00,34.0,30.0,29.94,WNW,299,5.0,8.0,84,0.00,,,-99.99,,2013-03-12 10:02:00,
2013-03-12 06:12:00,34.0,30.0,29.94,WNW,299,5.0,8.0,84,0.00,,,-99.99,,2013-03-12 10:12:00,
2013-03-12 06:22:00,33.0,29.0,29.95,NW,318,3.0,6.0,84,0.00,,,-99.99,,2013-03-12 10:22:00,
2013-03-12 06:32:00,33.0,29.0,29.96,NNW,341,3.0,9.0,84,0.00,,,-99.99,,2013-03-12 10:32:00,
2013-03-12 06:42:00,33.0,29.0,29.96,NNW,341,3.0,9.0,84,0.00,,,-99.99,,2013-03-12 10:42:00,
2013-03-12 06:52:00,33.0,28.0,29.96,NW,309,4.0,9.0,83,0.00,,,-99.99,,2013-03-12 10:52:00,
2013-03-12 07:02:00,33.0,28.0,29.97,NW,325,2.0,6.0,83,0.00,,,-99.99,,2013-03-12 11:02:00,
2013-03-12 07:12:00,33.0,28.0,29.97,NW,325,2.0,6.0,83,0.00,,,-99.99,,2013-03-12 11:12:00,
2013-03-12 07:22:00,33.0,28.0,29.98,NNW,328,0.0,6.0,83,0.00,,,-99.99,,2013-03-12 11:22:00,
2013-03-12 07:32:00,33.0,28.0,29.98,NNW,336,3.0,6.0,83,0.00,,,-99.99,,2013-03-12 11:32:00,
2013-03-12 07:42:00,33.0,28.0,29.98,NNW,336,3.0,6.0,83,0.00,,,-99.99,,2013-03-12 11:42:00,
2013-03-12 07:52:00,33.0,28.0,29.98,NNW,342,5.0,11.0,83,0.00,,,-99.99,,2013-03-12 11:52:00,
2013-03-12 08:03:00,33.0,29.0,29.98,North,350,1.0,9.0,84,0.00,,,-99.99,,2013-03-12 12:03:00,
2013-03-12 08:12:00,33.0,29.0,29.98,North,350,1.0,9.0,84,0.00,,,-99.99,,2013-03-12 12:12:00,
2013-03-12 08:22:00,33.0,29.0,29.98,NW,326,6.0,11.0,84,0.00,,,-99.99,,2013-03-12 12:22:00,
2013-03-12 08:32:00,33.0,29.0,29.96,NNW,329,4.0,9.0,84,0.00,,,-99.99,,2013-03-12 12:32:00,
2013-03-12 08:42:00,33.0,29.0,29.96,NNW,329,4.0,9.0,84,0.00,,,-99.99,,2013-03-12 12:42:00,
2013-03-12 08:52:00,33.0,29.0,29.96,NNW,340,5.0,11.0,84,0.00,,,-99.99,,2013-03-12 12:52:00,
2013-03-12 09:02:00,33.0,29.0,29.97,NNW,337,4.0,9.0,84,0.00,,,-99.99,,2013-03-12 13:02:00,
2013-03-12 09:12:00,33.0,29.0,29.97,NNW,337,4.0,9.0,84,0.00,,,-99.99,,2013-03-12 13:12:00,
2013-03-12 09:22:00,33.0,29.0,29.98,NW,313,6.0,10.0,84,0.00,,,-99.99,,2013-03-12 13:22:00,
2013-03-12 09:32:00,33.0,29.0,29.98,NNW,348,4.0,10.0,84,0.00,,,-99.99,,2013-03-12 13:32:00,
2013-03-12 09:42:00,33.0,29.0,29.98,NNW,348,4.0,10.0,84,0.00,,,-99.99,,2013-03-12 13:42:00,
2013-03-12 09:52:00,34.0,30.0,29.99,NW,325,4.0,7.0,84,0.00,,,-99.99,,2013-03-12 13:52:00,
2013-03-12 10:02:00,34.0,30.0,30.00,North,350,1.0,8.0,84,0.00,,,-99.99,,2013-03-12 14:02:00,
2013-03-12 10:12:00,34.0,30.0,30.00,North,350,1.0,8.0,84,0.00,,,-99.99,,2013-03-12 14:12:00,
2013-03-12 10:22:00,34.0,29.0,30.01,NW,323,4.0,14.0,83,0.00,,,-99.99,,2013-03-12 14:22:00,
2013-03-12 10:33:00,34.0,29.0,30.01,North,5,7.0,12.0,81,0.00,,,-99.99,,2013-03-12 14:33:00,
2013-03-12 10:42:00,34.0,29.0,30.01,North,5,7.0,12.0,81,0.00,,,-99.99,,2013-03-12 14:42:00,
2013-03-12 10:53:00,34.0,29.0,30.02,NNW,335,5.0,11.0,82,0.00,,,-99.99,,2013-03-12 14:53:00,
2013-03-12 11:03:00,35.0,29.0,30.02,North,349,7.0,10.0,78,0.00,,,-99.99,,2013-03-12 15:03:00,
2013-03-12 11:13:00,35.0,29.0,30.02,North,349,7.0,10.0,78,0.00,,,-99.99,,2013-03-12 15:13:00,
2013-03-12 11:22:00,36.0,29.0,30.02,NW,326,5.0,7.0,77,0.00,,,-99.99,,2013-03-12 15:22:00,
2013-03-12 11:32:00,37.0,29.0,30.03,West,279,2.0,10.0,74,0.00,,,-99.99,,2013-03-12 15:32:00,
2013-03-12 11:42:00,37.0,29.0,30.03,West,279,2.0,10.0,74,0.00,,,-99.99,,2013-03-12 15:42:00,
2013-03-12 11:52:00,39.0,31.0,30.03,South,173,2.0,7.0,74,0.00,,,-99.99,,2013-03-12 15:52:00,
2013-03-12 12:03:00,40.0,31.0,30.04,WNW,288,2.0,6.0,69,0.00,,,1.08,,2013-03-12 16:03:00,
2013-03-12 12:12:00,40.0,31.0,30.04,WNW,288,2.0,6.0,69,0.00,,,1.08,,2013-03-12 16:12:00,
2013-03-12 12:23:00,41.0,31.0,30.04,NNE,26,2.0,7.0,68,0.00,,,1.08,,2013-03-12 16:23:00,
2013-03-12 12:33:00,41.0,30.0,30.04,WNW,288,4.0,11.0,64,0.00,,,1.08,,2013-03-12 16:33:00,
2013-03-12 12:43:00,41.0,30.0,30.04,WNW,288,4.0,11.0,64,0.00,,,1.08,,2013-03-12 16:43:00,
2013-03-12 12:52:00,41.0,30.0,30.04,NNW,331,6.0,12.0,64,0.00,,,1.08,,2013-03-12 16:52:00,
2013-03-12 13:03:00,42.0,30.0,30.05,West,281,5.0,10.0,63,0.00,,,0.80,,2013-03-12 17:03:00,
2013-03-12 13:13:00,42.0,30.0,30.05,West,281,5.0,10.0,63,0.00,,,0.80,,2013-03-12 17:13:00,
2013-03-12 13:23:00,43.0,30.0,30.05,WNW,297,6.0,13.0,61,0.00,,,0.80,,2013-03-12 17:23:00,
2013-03-12 13:34:00,44.0,31.0,30.06,North,360,4.0,10.0,61,0.00,,,0.80,,2013-03-12 17:34:00,
2013-03-12 13:53:00,45.0,31.0,30.06,NNW,345,6.0,11.0,58,0.00,,,0.80,,2013-03-12 17:53:00,
2013-03-12 14:03:00,45.0,30.0,30.05,West,277,5.0,12.0,55,0.00,,,0.50,,2013-03-12 18:03:00,
2013-03-12 14:13:00,47.0,32.0,30.05,North,5,4.0,8.0,55,0.00,,,0.50,,2013-03-12 18:13:00,
2013-03-12 14:23:00,47.0,32.0,30.05,North,5,4.0,8.0,55,0.00,,,0.50,,2013-03-12 18:23:00,
2013-03-12 14:33:00,48.0,32.0,30.04,NW,305,2.0,10.0,53,0.00,,,0.50,,2013-03-12 18:33:00,
2013-03-12 14:42:00,48.0,32.0,30.04,NW,305,2.0,10.0,53,0.00,,,0.50,,2013-03-12 18:42:00,
2013-03-12 14:53:00,48.0,31.0,30.03,WNW,288,5.0,8.0,51,0.00,,,0.50,,2013-03-12 18:53:00,
2013-03-12 15:04:00,49.0,31.0,30.04,NNW,346,7.0,10.0,50,0.00,,,0.36,,2013-03-12 19:04:00,
2013-03-12 15:13:00,49.0,31.0,30.04,NNW,346,7.0,10.0,50,0.00,,,0.36,,2013-03-12 19:13:00,
2013-03-12 15:23:00,49.0,31.0,30.03,NW,304,5.0,12.0,50,0.00,,,0.36,,2013-03-12 19:23:00,
2013-03-12 15:33:00,50.0,32.0,30.03,WNW,294,5.0,12.0,50,0.00,,,0.36,,2013-03-12 19:33:00,
2013-03-12 15:43:00,50.0,32.0,30.03,WNW,294,5.0,12.0,50,0.00,,,0.36,,2013-03-12 19:43:00,
2013-03-12 15:53:00,50.0,32.0,30.03,WNW,295,7.0,11.0,49,0.00,,,0.36,,2013-03-12 19:53:00,
2013-03-12 16:02:00,51.0,33.0,30.02,NW,319,6.0,10.0,49,0.00,,,0.17,,2013-03-12 20:02:00,
2013-03-12 16:12:00,51.0,33.0,30.02,NW,319,6.0,10.0,49,0.00,,,0.17,,2013-03-12 20:12:00,
2013-03-12 16:23:00,51.0,33.0,30.02,NW,319,6.0,10.0,49,0.00,,,0.17,,2013-03-12 20:23:00,
2013-03-12 16:33:00,51.0,31.0,30.03,WNW,292,6.0,11.0,47,0.00,,,0.17,,2013-03-12 20:33:00,
2013-03-12 16:42:00,51.0,31.0,30.03,WNW,292,6.0,11.0,47,0.00,,,0.17,,2013-03-12 20:42:00,
2013-03-12 16:53:00,51.0,30.0,30.02,West,280,7.0,15.0,45,0.00,,,0.17,,2013-03-12 20:53:00,
2013-03-12 17:03:00,52.0,32.0,30.03,WNW,300,4.0,12.0,46,0.00,,,0.01,,2013-03-12 21:03:00,
2013-03-12 17:13:00,52.0,32.0,30.03,WNW,300,4.0,12.0,46,0.00,,,0.01,,2013-03-12 21:13:00,
2013-03-12 17:22:00,51.0,31.0,30.03,NW,315,6.0,13.0,46,0.00,,,0.01,,2013-03-12 21:22:00,
2013-03-12 17:33:00,51.0,30.0,30.04,WNW,284,8.0,12.0,45,0.00,,,0.01,,2013-03-12 21:33:00,
2013-03-12 17:43:00,51.0,30.0,30.04,WNW,284,8.0,12.0,45,0.00,,,0.01,,2013-03-12 21:43:00,
2013-03-12 17:52:00,51.0,32.0,30.04,WNW,299,4.0,11.0,48,0.00,,,0.01,,2013-03-12 21:52:00,
2013-03-12 18:03:00,51.0,32.0,30.04,NNW,339,3.0,11.0,48,0.00,,,0.01,,2013-03-12 22:03:00,
2013-03-12 18:13:00,51.0,32.0,30.04,NNW,339,3.0,11.0,48,0.00,,,0.01,,2013-03-12 22:13:00,
2013-03-12 18:23:00,51.0,31.0,30.04,NW,307,4.0,9.0,47,0.00,,,0.01,,2013-03-12 22:23:00,
2013-03-12 18:33:00,50.0,30.0,30.04,NW,309,5.0,14.0,46,0.00,,,0.01,,2013-03-12 22:33:00,
2013-03-12 18:43:00,50.0,30.0,30.04,NW,309,5.0,14.0,46,0.00,,,0.01,,2013-03-12 22:43:00,
2013-03-12 18:53:00,51.0,31.0,30.04,WNW,299,5.0,8.0,47,0.00,,,0.01,,2013-03-12 22:53:00,
2013-03-12 19:03:00,50.0,31.0,30.04,WNW,286,5.0,9.0,48,0.00,,,0.00,,2013-03-12 23:03:00,
2013-03-12 19:12:00,50.0,31.0,30.04,WNW,286,5.0,9.0,48,0.00,,,0.00,,2013-03-12 23:12:00,
2013-03-12 19:23:00,49.0,30.0,30.04,WNW,296,5.0,9.0,48,0.00,,,0.00,,2013-03-12 23:23:00,
2013-03-12 19:34:00,48.0,31.0,30.04,NW,304,4.0,7.0,51,0.00,,,0.00,,2013-03-12 23:34:00,
2013-03-12 19:43:00,48.0,31.0,30.04,NW,304,4.0,7.0,51,0.00,,,0.00,,2013-03-12 23:43:00,
2013-03-12 19:52:00,48.0,31.0,30.05,WNW,303,4.0,6.0,52,0.00,,,0.00,,2013-03-12 23:52:00,
2013-03-12 20:03:00,47.0,31.0,30.06,WNW,302,3.0,5.0,54,0.00,,,0.00,,2013-03-13 00:03:00,
2013-03-12 20:13:00,47.0,31.0,30.06,WNW,302,3.0,5.0,54,0.00,,,0.00,,2013-03-13 00:13:00,
2013-03-12 20:23:00,47.0,32.0,30.07,WNW,302,3.0,4.0,55,0.00,,,0.00,,2013-03-13 00:23:00,
2013-03-12 20:33:00,46.0,32.0,30.07,WNW,284,3.0,6.0,57,0.00,,,0.00,,2013-03-13 00:33:00,
2013-03-12 20:42:00,46.0,32.0,30.07,WNW,284,3.0,6.0,57,0.00,,,0.00,,2013-03-13 00:42:00,
2013-03-12 20:53:00,45.0,31.0,30.07,WNW,284,4.0,6.0,57,0.00,,,0.00,,2013-03-13 00:53:00,
2013-03-12 21:03:00,45.0,31.0,30.08,WNW,285,5.0,7.0,57,0.00,,,0.00,,2013-03-13 01:03:00,
2013-03-12 21:13:00,45.0,31.0,30.08,WNW,285,5.0,7.0,57,0.00,,,0.00,,2013-03-13 01:13:00,
2013-03-12 21:22:00,45.0,31.0,30.08,WNW,283,3.0,7.0,58,0.00,,,0.00,,2013-03-13 01:22:00,
2013-03-12 21:33:00,44.0,31.0,30.09,WNW,284,4.0,6.0,60,0.00,,,0.00,,2013-03-13 01:33:00,
2013-03-12 21:43:00,44.0,31.0,30.09,WNW,284,4.0,6.0,60,0.00,,,0.00,,2013-03-13 01:43:00,
2013-03-12 21:52:00,44.0,31.0,30.09,WNW,284,4.0,5.0,60,0.00,,,0.00,,2013-03-13 01:52:00,
2013-03-12 22:03:00,44.0,31.0,30.09,WNW,284,4.0,7.0,61,0.00,,,0.00,,2013-03-13 02:03:00,
2013-03-12 22:12:00,44.0,31.0,30.09,WNW,284,4.0,7.0,61,0.00,,,0.00,,2013-03-13 02:12:00,
2013-03-12 22:22:00,43.0,31.0,30.09,WNW,284,3.0,5.0,62,0.00,,,0.00,,2013-03-13 02:22:00,
2013-03-12 22:32:00,43.0,31.0,30.10,WNW,284,3.0,6.0,62,0.00,,,0.00,,2013-03-13 02:32:00,
2013-03-12 22:43:00,43.0,31.0,30.10,WNW,284,3.0,6.0,62,0.00,,,0.00,,2013-03-13 02:43:00,
2013-03-12 22:52:00,43.0,31.0,30.10,WNW,284,4.0,6.0,62,0.00,,,0.00,,2013-03-13 02:52:00,
2013-03-12 23:02:00,43.0,31.0,30.10,WNW,284,3.0,4.0,63,0.00,,,0.00,,2013-03-13 03:02:00,
2013-03-12 23:13:00,43.0,31.0,30.10,WNW,284,3.0,4.0,63,0.00,,,0.00,,2013-03-13 03:13:00,
2013-03-12 23:22:00,43.0,31.0,30.10,WNW,284,3.0,7.0,62,0.00,,,0.00,,2013-03-13 03:22:00,
2013-03-12 23:32:00,42.0,30.0,30.11,WNW,284,4.0,8.0,61,0.00,,,0.00,,2013-03-13 03:32:00,
2013-03-12 23:42:00,42.0,30.0,30.11,WNW,284,4.0,8.0,61,0.00,,,0.00,,2013-03-13 03:42:00,